星链-5735 (STARLINK-5735 )

导读 | 豆包AI

STARLINK-5735是美国太空探索技术公司(SpaceX)星链(Starlink)星座的一颗互联网通信卫星,于2023年2月12日由美国使用猎鹰9号火箭发射升空。作为星链二代部署阶段的卫星之一,它运行于近地轨道,采用霍尔效应推进技术,可提供低延迟宽带互联网服务,支撑全球范围内的通信覆盖,扩展星链在民用、应急通信等多场景的服务能力。

Basic Information
目录编号:
55603
目录名称:
STARLINK-5735
国际标识:
2023-020AL
轨道中心:
EARTH
卫星名称:
星链-5735
卫星全名:
星链-5735 (STARLINK-5735 )
卫星状态:
在轨 (已飞行1173 天)
发射日期:
2023-02-12 UTC
国别 :
美国 (US)
星等 :
--
Orbit Information
数据来源 国际轨道数据 AOE轨道数据
星历时间 2026-04-30T11:56:30+0800
9小时前
查看轨道信息
2026-04-28T17:00:00+0800
2天前
查看轨道信息
半长轴 6861.153km 6861.179km
偏心率 0.0001348 0.0001228
轨道倾角 43.004° 43.001°
近地点辐角 280.958° 254.698°
升交点赤经 63.369° 73.474°
平近点角 79.112° 334.240°
近地点 482.091km 482.199km
远地点 483.941km 483.885km
周期 94.266分钟 94.267分钟
每日圈数 15.275913 15.275826
Detailed Information
固有亮度:
5
最大亮度:
2.5
卫星平台:
Starlink v1.5
覆盖范围:
全球
运营商:
太空探索技术公司
运营商所在国:
美国
制造商(研发单位):
太空探索技术公司
制造商所在国:
美国
使用方式:
暂无
Satellite Introduction
星链(Starlink)计划是由太空探索技术公司(SpaceX)提出的一个巨型低轨卫星互联网星座项目,计划在2019年至2024年间在太空搭建由约1.2万颗卫星组成的“星链”网络,其中1584颗将部署在地球上空550千米处的近地轨道,并从2020年开始工作。该卫星仍在工作。
2D Orbit Map
3D Orbit Map
Orbit Altitude Analysis Chart
Orbit Inclination Analysis Chart
Orbit Comprehensive Analysis Chart
View Comprehensive Chart